Regional Weather Roundup
Issued by NWS Northern Indiana

Home | Current Version | Previous Version | Graphics & Text | Print | Product List | Glossary On
Versions: 1 2 3 4 5 6 7 8 9 10 11 12 13 14 15 16 17 18 19 20 21 22 23 24 25 26 27 28 29 30 31 32 33 34 35 36 37 38 39 40 41 42 43 44 45 46 47 48 49 50
000
ASUS43 KIWX 250500
RWRIWX

KIWX WEATHER ROUNDUP
NATIONAL WEATHER SERVICE NORTHERN INDIANA
100 AM EDT SUN JUN 25 2017

NOTE: "FAIR" INDICATES FEW OR NO CLOUDS BELOW 12,000 FEET WITH NO
SIGNIFICANT WEATHER AND/OR OBSTRUCTIONS TO VISIBILITY.

* THESE STATIONS ARE NOT UNDER NWS QUALITY CONTROL. THEY ALSO MAY NOT
  REPORT WEATHER SUCH AS PRECIPITATION OR FOG.

INZ001>027-250600-
NORTHERN INDIANA

CITY           SKY/WX    TMP DP  RH WIND       PRES   REMARKS
GARY*          MOCLDY    63  44  48 SW3       30.07S
MICHIGAN CITY* MOCLDY    59  50  72 CALM      30.06S
KNOX*          MOCLDY    55  41  58 SW6       30.07F
SOUTH BEND     PTCLDY    57  48  72 SW6       30.07S
GOSHEN         CLEAR     57  47  69 SW6       30.06F
MONTICELLO*    CLEAR     58  50  76 SW6       30.10S
FORT WAYNE     PTCLDY    61  49  64 W8        30.09R
PERU/GRISSOM   CLEAR     57  49  75 W6        30.09R

$$
INZ028>050-250600-
CENTRAL INDIANA

CITY           SKY/WX    TMP DP  RH WIND       PRES   REMARKS
LAFAYETTE      CLEAR     55  52  89 CALM      30.11S
KOKOMO*        CLEAR     58  50  75 SW6       30.12R
MUNCIE*        CLEAR     62  49  62 W7        30.11R
INDIANAPOLIS   CLEAR     60  49  66 W7        30.13S

$$
MIZ043>046-050>051-056>058-064>065-071>073-077>080-250600-
SOUTHWEST LOWER MICHIGAN

CITY           SKY/WX    TMP DP  RH WIND       PRES   REMARKS
BATTLE CREEK   PTCLDY    56  49  77 SW6       30.03F
BENTON HARBOR  CLOUDY    64  50  60 W7        30.03F
COLDWATER*     CLEAR     57  49  74 SW6       30.05S
HILLSDALE*     PTCLDY    57  46  67 W5        30.04S
HOLLAND        PTCLDY    62  49  62 W9        30.00F
GRAND RAPIDS   CLEAR     59  52  77 S7        29.99F
KALAMAZOO      PTCLDY    58  49  72 SW5       30.03F
STURGIS*       CLEAR     57  50  78 CALM      30.05S
THREE RIVERS*  MOCLDY    57  51  80 SW5       30.05F

$$
OHZ001>008-015>018-024>025-250600-
NORTHWEST OHIO

CITY           SKY/WX    TMP DP  RH WIND       PRES   REMARKS
DEFIANCE       MOCLDY    61  51  70 CALM      30.06R
FINDLAY        CLOUDY    65  54  67 SW3       30.04S
TOLEDO EXPRESS PTCLDY    60  51  72 SW6       30.03S
TOLEDO METCALF PTCLDY    62  52  69 SW6       30.04R
LIMA           CLEAR     64  50  60 W16       30.06S

$$
AND FOR LAKE MICHIGAN COASTAL AND OPEN LAKE BUOY OBSERVATIONS

STATION/POSITION TEMP    WIND        PRES    VSBY  WAVE
                 AIR SEA DIR/SP/G                  HT/PER
                 (F)     (DEG/KT/KT) (MB)    (MI)  (FT/S)
CALUMET HARBOR    66     250/  2/  3 1017.3S
MICHIGAN CITY     65     280/  6/  7   N/A
BURNS HARBOR      66     220/  4/  6 1018.3S
SOUTH LAKE BUOY   62 62  300/ 14/ 17 1015.9          3/ 4
4 MI NW BRIDGMAN  65 68  320/ 10/ 14 1017.5R         3/ 4
MICHIGAN CITY     65 67  310/  4/  8   N/A           2/ 4

$$
&&




USA.gov is the U.S. government's official web portal to all federal, state and local government web resources and services.